Regional Weather Roundup
Issued by NWS

Home | Current Version | Previous Version | Graphics & Text | Print | Product List | Glossary On
Versions: 1 2 3 4 5 6 7 8 9 10 11 12 13 14 15 16 17 18 19 20 21 22 23 24 25 26 27 28 29 30 31 32 33 34 35 36 37 38 39 40 41 42 43 44 45 46 47 48 49
000
ASUS43 KDMX 280007
RWRIA

WEATHER ROUNDUP FOR IOWA
NATIONAL WEATHER SERVICE DES MOINES IA
600 PM CST THU NOV 27 2014

NOTE: "FAIR" INDICATES FEW OR NO CLOUDS BELOW 12,000 FEET WITH NO
SIGNIFICANT WEATHER AND/OR OBSTRUCTIONS TO VISIBILITY.

* - THESE STATIONS ARE NOT NWS STATIONS...THUS NOT UNDER NWS
QUALITY CONTROL.  THEY ALSO DO NOT REPORT WEATHER SUCH
AS PRECIPITATION OR FOG.

IAZ001>003-012>014-020>022-031>034-043>046-280100-
   NORTHWEST IOWA

CITY           SKY/WX    TMP DP  RH WIND       PRES   REMARKS
CARROLL *      CLOUDY    10   5  79 SE14      30.34F WCI  -5
CHEROKEE *     CLOUDY    11   4  75 SE10      30.30F WCI  -3
DENISON *      CLOUDY    16   5  62 SE12G17   30.29F WCI   3
LE MARS *      CLOUDY    14   7  73 SE13G21   30.29S WCI   0
ORANGE CITY *  MOCLDY    12   3  67 SE9       30.25F WCI   0
SHELDON *      CLOUDY    10   1  67 SE15      30.25F WCI  -6
SIOUX CITY     MOCLDY    19   8  62 SE15      30.29S WCI   5
6HR MIN TEMP:  12; 6HR MAX TEMP:  20;

SPENCER        CLOUDY     7  -1  70 SE13      30.30F WCI  -9
6HR MIN TEMP:   2; 6HR MAX TEMP:   8;

STORM LAKE *   CLOUDY     9   0  66 SE13      30.30S WCI  -7
$$

IAZ055>058-069>071-079>083-090>094-280100-
   SOUTHWEST IOWA

CITY           SKY/WX    TMP DP  RH WIND       PRES   REMARKS
ATLANTIC *     CLOUDY    18   7  62 SE6G14    30.34F WCI   9
AUDUBON *      PTCLDY    14   5  67 SE12      30.33F WCI   0
CLARINDA *     PTCLDY    23  14  68 E5        30.37F WCI  17
COUNCIL BLFS * CLEAR     19  12  73 SE13      30.29F WCI   7
CRESTON *      MOCLDY    16   9  73 SE10      30.35F WCI   3
HARLAN  *      PTCLDY    18   9  68 SE8       30.36F WCI   7
LAMONI         PTCLDY    20  12  71 E6        30.38F WCI  12
6HR MIN TEMP:  18; 6HR MAX TEMP:  21;

RED OAK *      CLOUDY    21  12  68 SE10      30.34F WCI  10
SHENANDOAH *   CLEAR     25  16  68 SE10      30.35F WCI  15
$$

IAZ047>049-059>061-072>074-084-280100-
   CENTRAL IOWA

CITY           SKY/WX    TMP DP  RH WIND       PRES   REMARKS
AMES           CLOUDY     8   0  69 SE7       30.40F WCI  -3
6HR MIN TEMP:   4; 6HR MAX TEMP:  10;

ANKENY *       CLOUDY    10   0  61 E7        30.42F WCI   0
CHARITON *     CLOUDY    16   3  57 E6        30.40F WCI   7
DES MOINES     CLOUDY    13   1  59 SE7       30.41F WCI   3
6HR MIN TEMP:  10; 6HR MAX TEMP:  15;

GRINNELL*      MOCLDY     3   0  85 CALM      30.41F
KNOXVILLE *    CLOUDY    12   0  57 SE5       30.41F WCI   4
MARSHALLTOWN   PTCLDY     4  -1  80 CALM      30.40F
6HR MIN TEMP:   3; 6HR MAX TEMP:   7;

PELLA *        MOCLDY    10   1  68 CALM      30.45F
PERRY *        MOCLDY    10   3  72 SE7       30.39F WCI   0
$$

IAZ004>006-015-016-023>025-035-036-280100-
   NORTH CENTRAL IOWA

CITY           SKY/WX    TMP DP  RH WIND       PRES   REMARKS
ALGONA *       CLOUDY     3  -4  72 SE7       30.36S WCI  -9
CLARION *      PTCLDY     1  -4  78 SE8       30.37F WCI -12
ESTHERVILLE    CLOUDY     2  -3  80 SE10      30.32F WCI -14
6HR MIN TEMP:  -1; 6HR MAX TEMP:   2;

FORT DODGE *   CLOUDY     5  -2  72 SE6       30.36F WCI  -6
MASON CITY     PTCLDY     3  -3  76 SE5       30.37F WCI  -6
6HR MIN TEMP:  -3; 6HR MAX TEMP:   5; 6HR PCP: TRACE;

FOREST CITY *  CLEAR      3   0  85 S3        30.36F
IOWA FALLS *     N/A      5   0  78 S5        30.38F WCI  -4
$$

IAZ007>011-017>019-026>030-037>042-050>054-066-280100-
   NORTHEAST IOWA

CITY           SKY/WX    TMP DP  RH WIND       PRES   REMARKS
CEDAR RAPIDS   CLEAR      4   1  88 SW3       30.43F
6HR MIN TEMP:   4; 6HR MAX TEMP:  16;

CHARLES CITY * CLOUDY     1  -6  71 CALM      30.39F
CLINTON *      CLEAR      9   1  72 W8        30.46R WCI  -4
DECORAH *      PTCLDY     7  -4  61 CALM      30.37F
DUBUQUE        CLEAR      9  -3  58 NW6       30.39F WCI  -1
6HR MIN TEMP:   8; 6HR MAX TEMP:  19;

MONTICELLO *   CLEAR     10   3  72 W6        30.43S WCI   1
OELWEIN *      CLEAR      3  -2  78 CALM      30.40F
WATERLOO       PTCLDY     4  -1  80 CALM      30.41F
6HR MIN TEMP:   3; 6HR MAX TEMP:  10;

$$

IAZ064-065-067-068-078-280100-
   EAST CENTRAL IOWA

CITY           SKY/WX    TMP DP  RH WIND       PRES   REMARKS
DAVENPORT      CLEAR     10   0  63 W9        30.45S WCI  -3
6HR MIN TEMP:   9; 6HR MAX TEMP:  19;

IOWA CITY      PTCLDY     9   3  77 SW3       30.48F
6HR MIN TEMP:   9; 6HR MAX TEMP:  17;

MT. PLEASANT * PTCLDY     8   0  69 CALM      30.47F
MUSCATINE *    CLEAR      9   3  78 W6        30.49F WCI  -1
QUAD CITIES    PTCLDY    15   5  64 W10       30.46R WCI   2
6HR MIN TEMP:  15; 6HR MAX TEMP:  21;

$$

IAZ062-063-075>077-085>089-095>099-280100-
   SOUTHEAST IOWA

CITY           SKY/WX    TMP DP  RH WIND       PRES   REMARKS
BURLINGTON     PTCLDY    11   1  64 NW3       30.47S
6HR MIN TEMP:  11; 6HR MAX TEMP:  18;

FAIRFIELD *    CLEAR      7  -2  66 NE6       30.46F WCI  -3
FORT MADISON * CLEAR     12   1  62 W3        30.48S
KEOKUK *       CLEAR     14   3  62 N5        30.47F WCI   6
OSKALOOSA *      N/A      6  -1  73 NE3       30.44F
CENTERVILLE *  CLOUDY    18   9  68 E3        30.43S
OTTUMWA        MOCLDY    10  -1  61 NE6       30.44F WCI   0
6HR MIN TEMP:   9; 6HR MAX TEMP:  14;

WASHINGTON *   CLEAR      7   3  85 W3        30.46F
$$

ABBREVIATIONS USED IN REMARKS
   TC - TEMPERATURES IN CELSIUS
  WCI - WIND CHILL INDEX
   HX - HEAT INDEX
  VSB - VISIBILITY
$$




USA.gov is the U.S. government's official web portal to all federal, state and local government web resources and services.